Simultaneous Nadir Overpasses (SNOs) Predictions

Prediction of SNOs between GOES-15 and LANDSAT-8 Satellite Orbit:

Table of predicted SNOs for the next 14.0 days since TLE Epoch: 11/20/2021
Index Date Time (GOES-15) GOES-15 Lat,Lon LANDSAT-8 Lat,Lon Distance(km) Time Diff (sec)
1 11/20/2021 18:30:58 -0.25,-128.39 -0.97,-125.04 381.20 80
2 11/21/2021 06:55:02 0.24,-128.36 -0.16,-130.22 212.12 80
3 11/23/2021 06:40:11 0.24,-128.33 0.46,-127.27 120.33 80
4 11/23/2021 19:04:06 -0.22,-128.34 0.67,-132.42 464.43 80
5 11/25/2021 06:28:00 0.23,-128.29 1.08,-124.31 452.33 80
6 11/25/2021 18:51:55 -0.22,-128.30 0.05,-129.46 132.51 80
7 11/27/2021 18:37:04 -0.22,-128.26 -0.58,-126.51 199.09 80
8 11/28/2021 07:01:08 0.20,-128.23 -0.55,-131.69 394.31 80
9 11/30/2021 06:48:57 0.20,-128.18 0.09,-128.74 63.27 80
10 12/02/2021 06:34:06 0.20,-128.13 0.72,-125.79 267.05 80
11 12/02/2021 18:58:01 -0.19,-128.13 0.41,-130.93 318.56 80
